Preview of NWS' New Version of Forecast
This preview is not operational and should not be used for support decisions.

Regional Weather Roundup (RWR)

Issued by Gray - Portland, ME (GYX)

                            
000
ASUS41 KGYX 211905
RWRGYX
WEATHER ROUNDUP FOR MAINE AND NEW HAMPSHIRE
NATIONAL WEATHER SERVICE GRAY ME
300 PM EDT SAT SEP 21 2019

MEZ002-005-006-010-012-015-018-020-021-024-026-027-029-212000-
MAINE
  
CITY           SKY/WX    TMP DP  RH WIND       PRES   REMARKS
PORTLAND       FAIR      77  59  53 S10       30.14F                  
SANFORD        FAIR      79  62  56 SE8       30.15S                  
BAR HARBOR     FAIR      75  49  39 N8        30.13F                  
WISCASSET      FAIR      81  57  43 VRB3      30.13F                  
ROCKLAND       FAIR      74  59  59 S7        30.13F                  
FRYEBURG       FAIR      82  58  43 NE6       30.14F                  
LEWISTONAUBURN FAIR      80  58  46 VRB5      30.13F                  
AUGUSTA        CLOUDY    78  58  49 VRB3      30.14F                  
WATERVILLE     FAIR      78  59  51 N6        30.11F                  
BANGOR         FAIR      78  52  40 VRB5      30.13F                  
GREENVILLE       N/A     73  50  44 N8        30.15F                  
MILLINOCKET    FAIR      74  45  35 W8        30.14F                  
HOULTON        FAIR      73  42  32 NW8       30.11F                  
PRESQUE ISLE   FAIR      71  43  36 NW10      30.13F                  
FRENCHVILLE    FAIR      67  43  41 NW8       30.13F                  
CARIBOU        FAIR      71  43  36 NW9       30.12F                  
$$

NHZ002-005-008-009-011-012-014-212000-
NEW HAMPSHIRE
  
CITY           SKY/WX    TMP DP  RH WIND       PRES   REMARKS
ROCHESTER      FAIR      84  60  44 VRB7      30.14S                  
NASHUA         FAIR      84  59  42 NW6       30.14F                  
MANCHESTER     FAIR      85  56  37 CALM      30.12F                  
CONCORD        FAIR      84  58  40 VRB3      30.14F                  
LACONIA        FAIR      81  59  47 VRB5      30.15F                  
PLYMOUTH       FAIR      80  57  45 W8        30.14F                  
BERLIN         PTSUNNY   78  58  49 NW3       30.17F                  
WHITEFIELD     PTSUNNY   76  58  53 W5        30.17F                  
JAFFREY        FAIR      81  57  43 VRB3      30.18F                  
KEENE          FAIR      81  59  47 NW3       30.16F                  
LEBANON        FAIR      84  57  39 N3        30.16F                  
MT WASHINGTON  PTSUNNY   52  45  76 NW17G23     N/A                   
$$

VTZ005-007-008-212000-
VERMONT
  
CITY           SKY/WX    TMP DP  RH WIND       PRES   REMARKS
ST JOHNSBURY     N/A     79  59  50 MISG      30.14F                  
MONTPELIER     FAIR      77  59  53 N8        30.21F                  
BURLINGTON     FAIR      80  56  43 S3        30.15F                  
$$

MAZ007-012-024-CTZ003-RIZ002-NYZ038-NYZ072-212000-
SOUTHERN NEW ENGLAND AND NY
  
CITY           SKY/WX    TMP DP  RH WIND       PRES   REMARKS
BOSTON         FAIR      77  57  50 SE14      30.14F                  
WORCESTER      FAIR      78  60  53 SW7       30.19S                  
NANTUCKET      FAIR      73  58  59 S7        30.17S                  
PROVIDENCE     FAIR      81  57  43 SE12      30.16F                  
HARTFORD       FAIR      83  58  42 VRB3      30.15F                  
ALBANY         FAIR      82  55  39 W3        30.17F                  
NEW YORK CITY  FAIR      85  43  22 NW5       30.16F                  
$$

ANZ081-ANZ082-ANZ150-NHZ014-MEZ023>029-212000-
COASTAL MARINE OBSERVATIONS
  
STATION/POSITION TIME  TEMP    WIND        PRES    WAVE
                       AIR SEA DIR/SP/G            HT/PER
                 (UTC) (F)     (DEG/KT/KT) (MB)    (FT/S)
MOUNT DESERT ROC 1800          230/  5/  5 1020.4F
MATINICUS ROCK   1850   67                 1020.3F
ISLE OF SHOALS   1800   69     120/ 10/ 11 1020.6F
JEFFREYS LEDGE   1838      66                N/A     4/13
CASHES LEDGE BUO 1850   63 62  290/  2/  4 1021.3F   3/11
GEORGES BANK BUO 1850   61 60              1020.8F   4/11
$$

.............KEY..............
   WCI - WIND CHILL
   TC  - TEMPERATURE IN CELSIUS
   VSB - VISIBILITY IN MILES
   HX  - HEAT INDEX
   FAIR- INDICATES FEW OR NO CLOUDS BELOW 12,000 FT, WITH NO 
         SIGNIFICANT WEATHER AND/OR OBSTRUCTIONS TO VISIBILITY.